sat.trackr.live / text

‹ back to catalog

QIANFAN-15

NORAD 60393 · 2024-140Q

PAYLOAD ACTIVE UNKNOWN

§ Identity

Operator
Country
PRC
Launch date
2024-08-06
Launch site
TAISC
Launch vehicle
Mass (kg)
RCS (m²)

External: N2YO · Heavens-Above · Gunter

§ Orbital elements

Epoch: 2026-05-25T03:13:11.378208Z

Period
106.59 min
Inclination
88.9712°
Eccentricity
0.0014371
Mean motion
13.51011158 rev/d
Perigee alt
1,057.8 km
Apogee alt
1,079.2 km
Semi-major
7,446.7 km
B*
9.4165e-5
RAAN
282.3075°
Arg perigee
85.7887°
Mean anomaly
274.4906°
Rev number
8,932

§ Raw data

QIANFAN-151 60393U 24140Q   26145.13415947  .00000073  00000+0  94165-4 0  99922 60393  88.9712 282.3075 0014371  85.7887 274.4906 13.51011158 89324

JSON: /api/v1/satellites/60393 · /tle

For live sub-satellite position, see the globe view (requires WebGL).

§ Visibility from observer

Set your observer location to see the next 7 days of passes ≥ 10°. The values pass through the URL so the page stays shareable.

No JS? Fill the form by hand. The geolocation button needs JavaScript.